TimeCEST,TemperatureF,Dew PointF,Humidity,Sea Level PressureIn,VisibilityMPH,Wind Direction,Wind SpeedMPH,Gust SpeedMPH,PrecipitationIn,Events,Conditions,WindDirDegrees,DateUTC
12:00 AM,39.2,37.4,93,30.06,-9999.0,East,3.5,-,N/A,,Clear,90,2013-09-27 22:00:00
1:00 AM,39.2,35.6,87,30.04,-9999.0,Variable,2.3,-,N/A,,Clear,0,2013-09-27 23:00:00
2:00 AM,37.4,35.6,93,30.04,-9999.0,Variable,1.2,-,N/A,,Clear,0,2013-09-28 00:00:00
3:00 AM,35.6,33.8,93,30.04,-9999.0,Calm,Calm,-,N/A,,Clear,0,2013-09-28 01:00:00
3:15 AM,35.6,33.8,93,30.04,2.5,Calm,Calm,-,N/A,,Mist,0,2013-09-28 01:15:00
3:20 AM,35.6,33.8,93,30.04,1.2,Calm,Calm,-,N/A,,Mist,0,2013-09-28 01:20:00
3:25 AM,35.6,33.8,93,30.04,0.9,Calm,Calm,-,N/A,,Mist,0,2013-09-28 01:25:00
3:40 AM,35.6,33.8,93,30.04,0.6,Variable,1.2,-,N/A,Fog,Fog,0,2013-09-28 01:40:00
4:00 AM,35.6,33.8,93,30.04,0.5,Calm,Calm,-,N/A,Fog,Fog,0,2013-09-28 02:00:00
5:00 AM,35.6,33.8,93,30.04,0.5,Calm,Calm,-,N/A,Fog,Fog,0,2013-09-28 03:00:00
5:25 AM,35.6,33.8,93,30.04,0.3,Calm,Calm,-,N/A,Fog,Fog,0,2013-09-28 03:25:00
6:00 AM,33.8,32.0,93,30.04,0.4,ENE,2.3,-,N/A,Fog,Fog,70,2013-09-28 04:00:00
6:15 AM,35.6,33.8,93,30.04,0.7,ENE,2.3,-,N/A,,Scattered Clouds,70,2013-09-28 04:15:00
7:00 AM,33.8,32.0,93,30.04,0.9,East,2.3,-,N/A,,Partly Cloudy,80,2013-09-28 05:00:00
7:23 AM,33.8,32.0,93,30.06,2.8,Calm,Calm,-,N/A,Fog,Partly Cloudy,0,2013-09-28 05:23:00
7:41 AM,33.8,33.8,100,30.06,0.4,Calm,Calm,-,N/A,Fog,Fog,0,2013-09-28 05:41:00
8:00 AM,33.8,32.0,93,30.06,0.3,West,1.2,-,N/A,Fog,Fog,280,2013-09-28 06:00:00
8:34 AM,37.4,35.6,93,30.04,0.1,Calm,Calm,-,N/A,Fog,Fog,0,2013-09-28 06:34:00
9:00 AM,37.4,35.6,93,30.06,0.1,Calm,Calm,-,N/A,Fog,Fog,0,2013-09-28 07:00:00
10:00 AM,39.2,39.2,100,30.06,0.1,Calm,Calm,-,N/A,Fog,Fog,0,2013-09-28 08:00:00
11:00 AM,41.0,41.0,100,30.06,0.6,Variable,2.3,-,N/A,,Mostly Cloudy,0,2013-09-28 09:00:00
11:15 AM,42.8,42.8,100,30.06,0.9,Variable,1.2,-,N/A,,Mostly Cloudy,0,2013-09-28 09:15:00
11:27 AM,44.6,42.8,93,30.06,3.7,Variable,1.2,-,N/A,,Scattered Clouds,0,2013-09-28 09:27:00
12:00 PM,48.2,46.4,93,30.06,-9999.0,Variable,2.3,-,N/A,,Clear,0,2013-09-28 10:00:00
1:00 PM,55.4,46.4,72,30.04,6.2,Variable,1.2,-,N/A,,Partly Cloudy,0,2013-09-28 11:00:00
2:00 PM,55.4,41.0,58,30.01,6.2,Variable,2.3,-,N/A,,Partly Cloudy,0,2013-09-28 12:00:00
3:00 PM,57.2,37.4,48,30.01,6.2,Variable,2.3,-,N/A,,Partly Cloudy,0,2013-09-28 13:00:00
4:00 PM,57.2,39.2,51,29.98,6.2,NW,3.5,-,N/A,,Partly Cloudy,320,2013-09-28 14:00:00
5:00 PM,57.2,39.2,51,29.98,-9999.0,Variable,2.3,-,N/A,,Clear,0,2013-09-28 15:00:00
6:00 PM,55.4,39.2,54,29.98,-9999.0,East,5.8,-,N/A,,Clear,80,2013-09-28 16:00:00
7:00 PM,53.6,41.0,62,29.98,-9999.0,East,3.5,-,N/A,,Clear,100,2013-09-28 17:00:00
8:00 PM,51.8,42.8,71,30.01,-9999.0,East,5.8,-,N/A,,Clear,80,2013-09-28 18:00:00
9:00 PM,50.0,42.8,76,30.01,-9999.0,East,8.1,-,N/A,,Clear,80,2013-09-28 19:00:00
10:00 PM,48.2,41.0,76,30.01,-9999.0,East,8.1,-,N/A,,Clear,80,2013-09-28 20:00:00
11:00 PM,50.0,41.0,71,30.01,-9999.0,ENE,9.2,-,N/A,,Clear,70,2013-09-28 21:00:00